TimeMST,TemperatureF,Dew PointF,Humidity,Sea Level PressureIn,VisibilityMPH,Wind Direction,Wind SpeedMPH,Gust SpeedMPH,PrecipitationIn,Events,Conditions,WindDirDegrees,DateUTC
12:53 AM,21.0,15.1,78,29.99,10.0,East,9.2,-,N/A,,Scattered Clouds,100,2013-02-19 07:53:00
1:53 AM,19.0,14.0,81,29.97,10.0,ESE,10.4,-,N/A,,Clear,110,2013-02-19 08:53:00
2:53 AM,19.9,14.0,78,29.96,10.0,ESE,10.4,-,N/A,,Clear,110,2013-02-19 09:53:00
3:53 AM,18.0,12.9,81,29.94,10.0,ESE,6.9,-,N/A,,Scattered Clouds,120,2013-02-19 10:53:00
4:53 AM,19.9,15.1,81,29.91,10.0,ESE,15.0,-,N/A,,Scattered Clouds,110,2013-02-19 11:53:00
5:53 AM,19.0,14.0,81,29.93,10.0,East,12.7,-,N/A,,Overcast,90,2013-02-19 12:53:00
6:53 AM,19.0,14.0,81,29.93,10.0,East,11.5,-,N/A,,Mostly Cloudy,100,2013-02-19 13:53:00
7:53 AM,18.0,12.9,81,29.93,10.0,East,11.5,-,N/A,,Partly Cloudy,100,2013-02-19 14:53:00
8:53 AM,19.0,14.0,81,29.92,10.0,East,12.7,-,N/A,,Clear,80,2013-02-19 15:53:00
9:53 AM,19.9,15.1,81,29.91,10.0,East,10.4,-,N/A,,Overcast,90,2013-02-19 16:53:00
11:53 AM,25.0,17.1,72,29.86,-9999.0,East,10.4,-,N/A,,Clear,80,2013-02-19 18:53:00
12:53 PM,28.0,17.1,63,29.81,-9999.0,East,12.7,-,N/A,,Clear,80,2013-02-19 19:53:00
1:53 PM,30.0,17.1,59,29.79,-9999.0,East,11.5,-,N/A,,Partly Cloudy,80,2013-02-19 20:53:00
2:53 PM,32.0,17.1,54,29.76,-9999.0,East,11.5,-,N/A,,Clear,80,2013-02-19 21:53:00
3:53 PM,32.0,17.1,54,29.78,-9999.0,ENE,10.4,-,N/A,,Scattered Clouds,70,2013-02-19 22:53:00
5:53 PM,27.0,15.1,61,29.80,-9999.0,East,9.2,-,N/A,,Clear,90,2013-02-20 00:53:00
6:53 PM,25.0,15.1,66,29.82,-9999.0,East,8.1,-,N/A,,Clear,90,2013-02-20 01:53:00
7:53 PM,23.0,15.1,72,29.84,-9999.0,ESE,5.8,-,N/A,,Overcast,120,2013-02-20 02:53:00
8:53 PM,21.0,14.0,74,29.86,-9999.0,SE,3.5,-,N/A,,Clear,140,2013-02-20 03:53:00
9:53 PM,18.0,12.0,78,29.87,-9999.0,Calm,Calm,-,N/A,,Clear,0,2013-02-20 04:53:00
10:53 PM,17.1,10.9,77,29.87,-9999.0,Calm,Calm,-,N/A,,Clear,0,2013-02-20 05:53:00
11:53 PM,17.1,12.0,81,29.86,-9999.0,NNW,5.8,-,N/A,,Clear,330,2013-02-20 06:53:00